| time (UTC) | temp C | wind direction | speed KPH | gust KPH | rain 1hr cm | rain 24hr cm | rain mn cm | humidity % | barometer mb |
| 20260506104150 | 12 | 275 | 3.2 | 6.4 | 0.00 | 0.00 | 0.00 | 82 | 1015.7 |
| 20260506103648 | 12 | 289 | 3.2 | 4.8 | 0.00 | 0.00 | 0.00 | 82 | 1015.7 |
| 20260506103148 | 12 | 299 | 1.6 | 4.8 | 0.00 | 0.00 | 0.00 | 82 | 1015.6 |
| 20260506102649 | 12 | 333 | 1.6 | 4.8 | 0.00 | 0.00 | 0.00 | 82 | 1015.6 |
| 20260506102148 | 12 | 285 | 3.2 | 6.4 | 0.00 | 0.00 | 0.00 | 83 | 1015.5 |
| 20260506101648 | 12 | 277 | 1.6 | 6.4 | 0.00 | 0.00 | 0.00 | 83 | 1015.4 |
| 20260506101150 | 12 | 313 | 1.6 | 6.4 | 0.00 | 0.00 | 0.00 | 83 | 1015.4 |
| 20260506100648 | 12 | 320 | 3.2 | 12.9 | 0.00 | 0.00 | 0.00 | 83 | 1015.3 |
| 20260506100148 | 12 | 316 | 4.8 | 12.9 | 0.00 | 0.00 | 0.00 | 83 | 1015.3 |
| 20260506095649 | 12 | 299 | 6.4 | 12.9 | 0.00 | 0.00 | 0.00 | 83 | 1015.4 |
| 20260506095148 | 12 | 303 | 4.8 | 9.7 | 0.00 | 0.00 | 0.00 | 83 | 1015.3 |
| 20260506094648 | 12 | 278 | 3.2 | 11.3 | 0.00 | 0.00 | 0.00 | 83 | 1015.3 |
| 20260506094150 | 12 | 302 | 4.8 | 11.3 | 0.00 | 0.00 | 0.00 | 83 | 1015.2 |
| 20260506093648 | 12 | 319 | 6.4 | 11.3 | 0.00 | 0.00 | 0.00 | 83 | 1015.1 |
| 20260506093148 | 12 | 320 | 1.6 | 9.7 | 0.00 | 0.00 | 0.00 | 83 | 1015.1 |
| 20260506092649 | 13 | 296 | 3.2 | 9.7 | 0.00 | 0.00 | 0.00 | 83 | 1015.1 |
| 20260506092148 | 12 | 301 | 3.2 | 8.0 | 0.00 | 0.00 | 0.00 | 83 | 1015.1 |
| 20260506091648 | 13 | 0 | 0.0 | 0.0 | 0.00 | 0.00 | 0.00 | 83 | 1015.0 |
| 20260506091149 | 13 | 0 | 0.0 | 0.0 | 0.00 | 0.00 | 0.00 | 83 | 1015.0 |
| 20260506090647 | 12 | 0 | 0.0 | 0.0 | 0.00 | 0.00 | 0.00 | 83 | 1015.0 |
| 20260506085649 | 12 | 0 | 0.0 | 0.0 | 0.00 | 0.03 | 0.00 | 83 | 1014.9 |
| 20260506084648 | 12 | 0 | 0.0 | 0.0 | 0.00 | 0.03 | 0.00 | 83 | 1014.9 |
| 20260506084150 | 13 | 0 | 0.0 | 0.0 | 0.00 | 0.03 | 0.00 | 83 | 1014.9 |
| 20260506083648 | 12 | 0 | 0.0 | 0.0 | 0.00 | 0.03 | 0.00 | 83 | 1014.9 |
| 20260506083147 | 13 | 0 | 0.0 | 0.0 | 0.00 | 0.03 | 0.00 | 83 | 1014.9 |
| 20260506082650 | 13 | 0 | 0.0 | 0.0 | 0.00 | 0.03 | 0.00 | 83 | 1014.9 |
| 20260506082147 | 13 | 0 | 0.0 | 0.0 | 0.00 | 0.03 | 0.00 | 83 | 1014.8 |
| 20260506081648 | 13 | 0 | 0.0 | 0.0 | 0.00 | 0.03 | 0.00 | 83 | 1014.8 |
| 20260506081151 | 13 | 0 | 0.0 | 0.0 | 0.00 | 0.03 | 0.00 | 83 | 1014.7 |
| 20260506080647 | 13 | 0 | 0.0 | 0.0 | 0.00 | 0.03 | 0.00 | 83 | 1014.7 |
| 20260506073147 | 13 | 0 | 0.0 | 0.0 | 0.00 | 0.03 | 0.00 | 83 | 1014.3 |
| 20260506072649 | 13 | 0 | 0.0 | 0.0 | 0.00 | 0.03 | 0.00 | 82 | 1014.2 |
| 20260506072147 | 13 | 0 | 0.0 | 0.0 | 0.00 | 0.03 | 0.00 | 83 | 1014.2 |
| 20260506071647 | 13 | 0 | 0.0 | 0.0 | 0.00 | 0.03 | 0.00 | 83 | 1014.1 |
| 20260506071150 | 13 | 0 | 0.0 | 0.0 | 0.00 | 0.03 | 0.00 | 83 | 1014.1 |
| 20260506070647 | 13 | 0 | 0.0 | 0.0 | 0.00 | 0.03 | 0.00 | 82 | 1014.0 |
| 20260506062147 | 13 | 0 | 0.0 | 0.0 | 0.00 | 0.03 | 0.03 | 82 | 1013.9 |
| 20260506061647 | 13 | 0 | 0.0 | 0.0 | 0.00 | 0.03 | 0.03 | 82 | 1013.9 |
| 20260506061149 | 13 | 0 | 0.0 | 0.0 | 0.00 | 0.03 | 0.03 | 82 | 1013.9 |
| 20260506060147 | 13 | 0 | 0.0 | 0.0 | 0.00 | 0.05 | 0.03 | 82 | 1013.8 |
| 20260506051149 | 13 | 0 | 0.0 | 0.0 | 0.00 | 0.05 | 0.03 | 82 | 1013.9 |
| 20260506050647 | 13 | 0 | 0.0 | 0.0 | 0.00 | 0.05 | 0.03 | 82 | 1014.0 |
| 20260506050147 | 13 | 0 | 0.0 | 0.0 | 0.00 | 0.05 | 0.03 | 82 | 1013.9 |
| 20260506044647 | 13 | 0 | 0.0 | 0.0 | 0.00 | 0.05 | 0.03 | 82 | 1013.8 |
| 20260506044149 | 13 | 0 | 0.0 | 0.0 | 0.00 | 0.05 | 0.03 | 82 | 1013.6 |
| 20260506043647 | 13 | 0 | 0.0 | 0.0 | 0.00 | 0.05 | 0.03 | 82 | 1013.7 |
| 20260506043147 | 13 | 0 | 0.0 | 0.0 | 0.00 | 0.05 | 0.03 | 82 | 1013.6 |
| 20260506042648 | 13 | 0 | 0.0 | 0.0 | 0.00 | 0.05 | 0.03 | 82 | 1013.5 |
| 20260506042147 | 13 | 0 | 0.0 | 0.0 | 0.00 | 0.05 | 0.03 | 82 | 1013.5 |
| 20260506041647 | 13 | 0 | 0.0 | 0.0 | 0.00 | 0.05 | 0.03 | 82 | 1013.6 |
| 20260506041150 | 13 | 0 | 0.0 | 0.0 | 0.00 | 0.05 | 0.03 | 81 | 1013.5 |
| 20260506040647 | 13 | 0 | 0.0 | 0.0 | 0.00 | 0.05 | 0.03 | 81 | 1013.4 |
| 20260506040147 | 13 | 0 | 0.0 | 4.8 | 0.00 | 0.05 | 0.03 | 81 | 1013.3 |
| 20260506035648 | 13 | 0 | 0.0 | 4.8 | 0.00 | 0.05 | 0.03 | 81 | 1013.3 |
| 20260506035147 | 13 | 315 | 0.0 | 4.8 | 0.00 | 0.05 | 0.03 | 81 | 1013.2 |
| 20260506034648 | 13 | 330 | 0.0 | 3.2 | 0.00 | 0.05 | 0.03 | 81 | 1013.2 |
| 20260506034149 | 13 | 336 | 1.6 | 6.4 | 0.00 | 0.05 | 0.03 | 81 | 1013.1 |
| 20260506033648 | 13 | 343 | 1.6 | 6.4 | 0.00 | 0.05 | 0.03 | 81 | 1013.1 |
| 20260506033147 | 13 | 326 | 3.2 | 6.4 | 0.00 | 0.05 | 0.03 | 81 | 1012.9 |
| 20260506032648 | 13 | 324 | 4.8 | 6.4 | 0.00 | 0.05 | 0.03 | 81 | 1012.9 |
| 20260506032147 | 13 | 331 | 3.2 | 8.0 | 0.00 | 0.05 | 0.03 | 81 | 1012.8 |
| 20260506031647 | 13 | 331 | 1.6 | 8.0 | 0.00 | 0.05 | 0.03 | 81 | 1012.8 |
| 20260506031150 | 13 | 329 | 4.8 | 8.0 | 0.00 | 0.05 | 0.03 | 81 | 1012.8 |
| 20260506030648 | 14 | 323 | 3.2 | 6.4 | 0.00 | 0.05 | 0.03 | 81 | 1012.8 |
| 20260506030148 | 14 | 338 | 3.2 | 11.3 | 0.00 | 0.05 | 0.03 | 81 | 1012.7 |
| 20260506025648 | 14 | 320 | 4.8 | 11.3 | 0.00 | 0.05 | 0.03 | 81 | 1012.7 |
| 20260506025148 | 14 | 323 | 4.8 | 11.3 | 0.00 | 0.05 | 0.03 | 80 | 1012.7 |
| 20260506024648 | 14 | 323 | 3.2 | 9.7 | 0.00 | 0.05 | 0.03 | 80 | 1012.6 |
| 20260506024150 | 14 | 313 | 6.4 | 8.0 | 0.00 | 0.05 | 0.03 | 80 | 1012.7 |
| 20260506023648 | 14 | 320 | 4.8 | 11.3 | 0.00 | 0.05 | 0.03 | 81 | 1012.7 |
| 20260506023148 | 14 | 326 | 3.2 | 11.3 | 0.00 | 0.05 | 0.03 | 81 | 1012.6 |
| 20260506022650 | 14 | 351 | 3.2 | 11.3 | 0.00 | 0.05 | 0.03 | 81 | 1012.6 |
| 20260506022147 | 14 | 329 | 6.4 | 11.3 | 0.00 | 0.05 | 0.03 | 81 | 1012.5 |
| 20260506021647 | 14 | 324 | 6.4 | 11.3 | 0.00 | 0.05 | 0.03 | 81 | 1012.6 |
| 20260506021149 | 14 | 336 | 4.8 | 11.3 | 0.00 | 0.05 | 0.03 | 81 | 1012.6 |
| 20260506020648 | 14 | 322 | 4.8 | 12.9 | 0.00 | 0.05 | 0.03 | 81 | 1012.6 |
| 20260506020148 | 14 | 338 | 6.4 | 12.9 | 0.00 | 0.05 | 0.03 | 81 | 1012.6 |
| 20260506015649 | 14 | 320 | 8.0 | 12.9 | 0.00 | 0.05 | 0.03 | 81 | 1012.6 |
| 20260506015148 | 14 | 329 | 6.4 | 12.9 | 0.00 | 0.05 | 0.03 | 81 | 1012.7 |
| 20260506014648 | 14 | 334 | 6.4 | 12.9 | 0.00 | 0.05 | 0.03 | 81 | 1012.6 |
| 20260506014220 | 14 | 319 | 8.0 | 12.9 | 0.00 | 0.05 | 0.03 | 81 | 1012.6 |
| 20260506014149 | 14 | 319 | 8.0 | 12.9 | 0.00 | 0.05 | 0.03 | 81 | 1012.6 |
| 20260506013647 | 14 | 334 | 8.0 | 12.9 | 0.00 | 0.05 | 0.03 | 81 | 1012.6 |
| 20260506013147 | 15 | 316 | 9.7 | 12.9 | 0.00 | 0.05 | 0.03 | 81 | 1012.6 |
| 20260506012649 | 15 | 324 | 9.7 | 12.9 | 0.00 | 0.05 | 0.03 | 81 | 1012.6 |
| 20260506012147 | 15 | 329 | 8.0 | 12.9 | 0.00 | 0.05 | 0.03 | 81 | 1012.6 |
| 20260506011647 | 15 | 351 | 8.0 | 12.9 | 0.00 | 0.05 | 0.03 | 81 | 1012.6 |
| 20260506011149 | 15 | 338 | 8.0 | 12.9 | 0.00 | 0.05 | 0.03 | 81 | 1012.6 |
| 20260506010647 | 15 | 331 | 8.0 | 11.3 | 0.00 | 0.05 | 0.03 | 81 | 1012.6 |
| 20260506005649 | 15 | 333 | 9.7 | 12.9 | 0.00 | 0.05 | 0.03 | 80 | 1012.6 |
| 20260506005149 | 15 | 322 | 8.0 | 12.9 | 0.00 | 0.05 | 0.03 | 81 | 1012.6 |
| 20260506004149 | 15 | 331 | 8.0 | 12.9 | 0.00 | 0.05 | 0.03 | 80 | 1012.6 |
| 20260506003647 | 15 | 316 | 6.4 | 12.9 | 0.00 | 0.05 | 0.03 | 80 | 1012.7 |
| 20260506003148 | 15 | 298 | 6.4 | 12.9 | 0.00 | 0.05 | 0.03 | 80 | 1012.7 |
| 20260506002648 | 15 | 296 | 6.4 | 12.9 | 0.00 | 0.05 | 0.03 | 80 | 1012.7 |
| 20260506002147 | 15 | 291 | 9.7 | 12.9 | 0.00 | 0.05 | 0.03 | 80 | 1012.6 |
| 20260506001648 | 15 | 303 | 8.0 | 12.9 | 0.00 | 0.05 | 0.03 | 80 | 1012.6 |
| 20260506001149 | 15 | 320 | 6.4 | 9.7 | 0.00 | 0.05 | 0.03 | 80 | 1012.6 |
| 20260506000647 | 15 | 310 | 4.8 | 9.7 | 0.00 | 0.05 | 0.03 | 80 | 1012.6 |
| 20260506000148 | 15 | 301 | 6.4 | 12.9 | 0.00 | 0.05 | 0.03 | 80 | 1012.7 |
| 20260505235648 | 15 | 302 | 6.4 | 12.9 | 0.00 | 0.05 | 0.03 | 80 | 1012.7 |
| 20260505235147 | 15 | 306 | 8.0 | 12.9 | 0.00 | 0.05 | 0.03 | 80 | 1012.7 |
| 20260505234647 | 15 | 295 | 9.7 | 11.3 | 0.00 | 0.05 | 0.03 | 80 | 1012.7 |
| 20260505233647 | 15 | 308 | 8.0 | 12.9 | 0.00 | 0.05 | 0.03 | 80 | 1012.8 |
| 20260505233147 | 15 | 333 | 6.4 | 12.9 | 0.00 | 0.05 | 0.03 | 80 | 1012.8 |
| 20260505232648 | 15 | 327 | 8.0 | 12.9 | 0.00 | 0.05 | 0.03 | 80 | 1012.9 |
| 20260505232147 | 16 | 343 | 8.0 | 11.3 | 0.00 | 0.05 | 0.03 | 80 | 1012.8 |
| 20260505231647 | 16 | 343 | 8.0 | 12.9 | 0.00 | 0.05 | 0.03 | 80 | 1012.9 |
| 20260505231149 | 16 | 330 | 8.0 | 12.9 | 0.00 | 0.05 | 0.03 | 80 | 1012.9 |
| 20260505230647 | 16 | 299 | 6.4 | 12.9 | 0.00 | 0.05 | 0.03 | 80 | 1012.9 |
| 20260505230147 | 16 | 298 | 6.4 | 11.3 | 0.00 | 0.05 | 0.03 | 80 | 1013.0 |
| 20260505225648 | 16 | 301 | 6.4 | 11.3 | 0.00 | 0.05 | 0.03 | 80 | 1013.0 |
| 20260505225147 | 16 | 302 | 6.4 | 11.3 | 0.00 | 0.05 | 0.03 | 80 | 1013.0 |
| 20260505224647 | 16 | 316 | 6.4 | 11.3 | 0.00 | 0.05 | 0.03 | 80 | 1013.1 |
| 20260505224149 | 16 | 303 | 4.8 | 11.3 | 0.00 | 0.05 | 0.03 | 80 | 1013.1 |
| 20260505223648 | 16 | 281 | 8.0 | 11.3 | 0.00 | 0.05 | 0.03 | 80 | 1013.1 |
| 20260505223147 | 16 | 281 | 4.8 | 9.7 | 0.00 | 0.05 | 0.03 | 80 | 1013.1 |
| 20260505222648 | 16 | 294 | 8.0 | 9.7 | 0.00 | 0.05 | 0.03 | 80 | 1013.1 |
| 20260505222147 | 16 | 275 | 6.4 | 11.3 | 0.00 | 0.05 | 0.03 | 80 | 1013.1 |
| 20260505221647 | 16 | 306 | 6.4 | 11.3 | 0.00 | 0.05 | 0.03 | 80 | 1013.0 |
| 20260505221149 | 16 | 289 | 4.8 | 11.3 | 0.00 | 0.05 | 0.03 | 80 | 1013.0 |
| 20260505220147 | 16 | 298 | 8.0 | 11.3 | 0.00 | 0.05 | 0.03 | 80 | 1013.1 |
| 20260505215648 | 16 | 295 | 6.4 | 11.3 | 0.00 | 0.05 | 0.03 | 80 | 1013.1 |
| 20260505215147 | 15 | 288 | 8.0 | 9.7 | 0.00 | 0.05 | 0.03 | 80 | 1013.2 |
| 20260505214647 | 16 | 292 | 4.8 | 9.7 | 0.00 | 0.05 | 0.03 | 80 | 1013.2 |
| 20260505214150 | 15 | 316 | 4.8 | 9.7 | 0.00 | 0.05 | 0.03 | 81 | 1013.1 |
| 20260505213647 | 15 | 288 | 8.0 | 9.7 | 0.00 | 0.05 | 0.03 | 81 | 1013.2 |
| 20260505213148 | 15 | 310 | 6.4 | 8.0 | 0.00 | 0.05 | 0.03 | 81 | 1013.2 |
| 20260505212649 | 15 | 295 | 4.8 | 6.4 | 0.00 | 0.05 | 0.03 | 80 | 1013.3 |
| 20260505212147 | 15 | 303 | 4.8 | 8.0 | 0.00 | 0.05 | 0.03 | 79 | 1013.2 |
| 20260505211647 | 15 | 288 | 4.8 | 8.0 | 0.00 | 0.05 | 0.03 | 80 | 1013.2 |
| 20260505211150 | 15 | 294 | 1.6 | 8.0 | 0.00 | 0.05 | 0.03 | 80 | 1013.2 |
| 20260505210647 | 15 | 302 | 4.8 | 9.7 | 0.00 | 0.05 | 0.03 | 81 | 1013.2 |
| 20260505210147 | 15 | 298 | 6.4 | 9.7 | 0.00 | 0.05 | 0.03 | 81 | 1013.3 |
| 20260505205648 | 15 | 288 | 6.4 | 9.7 | 0.00 | 0.05 | 0.03 | 81 | 1013.2 |
| 20260505205147 | 15 | 280 | 6.4 | 8.0 | 0.00 | 0.05 | 0.03 | 81 | 1013.2 |
| 20260505204647 | 15 | 282 | 4.8 | 6.4 | 0.00 | 0.05 | 0.03 | 82 | 1013.3 |
| 20260505204149 | 15 | 280 | 4.8 | 6.4 | 0.00 | 0.05 | 0.03 | 81 | 1013.3 |
| 20260505203647 | 15 | 282 | 3.2 | 4.8 | 0.00 | 0.05 | 0.03 | 81 | 1013.3 |
| 20260505203147 | 15 | 296 | 1.6 | 8.0 | 0.00 | 0.05 | 0.03 | 81 | 1013.4 |
| 20260505202648 | 15 | 299 | 4.8 | 8.0 | 0.00 | 0.05 | 0.03 | 81 | 1013.3 |
| 20260505202147 | 15 | 277 | 1.6 | 8.0 | 0.00 | 0.05 | 0.03 | 81 | 1013.3 |
| 20260505201647 | 15 | 303 | 0.0 | 6.4 | 0.00 | 0.05 | 0.03 | 81 | 1013.3 |
| 20260505201149 | 15 | 309 | 1.6 | 4.8 | 0.00 | 0.05 | 0.03 | 81 | 1013.3 |
| 20260505200648 | 15 | 263 | 0.0 | 4.8 | 0.00 | 0.05 | 0.03 | 81 | 1013.3 |
| 20260505200148 | 15 | 267 | 1.6 | 4.8 | 0.00 | 0.05 | 0.03 | 81 | 1013.3 |
| 20260505195648 | 15 | 235 | 1.6 | 6.4 | 0.00 | 0.05 | 0.03 | 82 | 1013.3 |
| 20260505195148 | 15 | 277 | 1.6 | 6.4 | 0.00 | 0.05 | 0.03 | 82 | 1013.3 |
| 20260505194648 | 14 | 268 | 1.6 | 6.4 | 0.00 | 0.05 | 0.03 | 82 | 1013.3 |
| 20260505194149 | 14 | 291 | 0.0 | 4.8 | 0.00 | 0.05 | 0.03 | 82 | 1013.4 |
| 20260505193647 | 14 | 274 | 3.2 | 4.8 | 0.00 | 0.05 | 0.03 | 82 | 1013.3 |
| 20260505193147 | 14 | 224 | 1.6 | 6.4 | 0.00 | 0.05 | 0.03 | 83 | 1013.3 |
| 20260505192648 | 14 | 259 | 3.2 | 6.4 | 0.00 | 0.05 | 0.03 | 83 | 1013.3 |
| 20260505192148 | 14 | 287 | 3.2 | 6.4 | 0.00 | 0.05 | 0.03 | 83 | 1013.3 |
| 20260505191647 | 14 | 287 | 0.0 | 4.8 | 0.00 | 0.05 | 0.03 | 83 | 1013.3 |
| 20260505191150 | 14 | 282 | 3.2 | 4.8 | 0.00 | 0.05 | 0.03 | 83 | 1013.3 |
| 20260505190649 | 14 | 267 | 4.8 | 6.4 | 0.00 | 0.05 | 0.03 | 84 | 1013.3 |
| 20260505190147 | 13 | 288 | 1.6 | 6.4 | 0.00 | 0.05 | 0.03 | 84 | 1013.2 |
| 20260505185648 | 13 | 222 | 0.0 | 6.4 | 0.00 | 0.05 | 0.03 | 84 | 1013.2 |
| 20260505185147 | 13 | 197 | 1.6 | 4.8 | 0.00 | 0.05 | 0.03 | 84 | 1013.2 |
| 20260505184149 | 13 | 243 | 1.6 | 4.8 | 0.00 | 0.05 | 0.03 | 84 | 1013.2 |
| 20260505183647 | 13 | 221 | 1.6 | 1.6 | 0.00 | 0.05 | 0.03 | 85 | 1013.1 |
| 20260505183148 | 13 | 182 | 0.0 | 4.8 | 0.00 | 0.05 | 0.03 | 85 | 1013.1 |
| 20260505182648 | 13 | 196 | 0.0 | 4.8 | 0.00 | 0.05 | 0.03 | 85 | 1013.0 |
| 20260505182147 | 13 | 165 | 0.0 | 4.8 | 0.00 | 0.05 | 0.03 | 85 | 1013.0 |
| 20260505181647 | 13 | 253 | 0.0 | 4.8 | 0.00 | 0.05 | 0.03 | 85 | 1012.9 |
| 20260505181149 | 13 | 186 | 0.0 | 4.8 | 0.00 | 0.05 | 0.03 | 85 | 1012.9 |
| 20260505180647 | 13 | 207 | 1.6 | 16.1 | 0.00 | 0.05 | 0.03 | 85 | 1012.9 |
| 20260505180147 | 13 | 186 | 3.2 | 16.1 | 0.00 | 0.05 | 0.03 | 85 | 1012.9 |
| 20260505175648 | 13 | 168 | 1.6 | 16.1 | 0.00 | 0.05 | 0.03 | 85 | 1012.9 |
| 20260505175146 | 13 | 232 | 9.7 | 9.7 | 0.00 | 0.05 | 0.03 | 85 | 1012.9 |
| 20260505174647 | 13 | 187 | 4.8 | 9.7 | 0.00 | 0.05 | 0.03 | 85 | 1012.9 |
| 20260505173647 | 13 | 247 | 3.2 | 9.7 | 0.00 | 0.05 | 0.03 | 85 | 1012.9 |
| 20260505173148 | 13 | 226 | 0.0 | 9.7 | 0.00 | 0.05 | 0.03 | 85 | 1012.8 |
| 20260505172648 | 13 | 203 | 1.6 | 9.7 | 0.00 | 0.05 | 0.03 | 86 | 1012.8 |
| 20260505172146 | 13 | 254 | 3.2 | 6.4 | 0.00 | 0.05 | 0.03 | 86 | 1012.6 |
| 20260505171647 | 13 | 208 | 0.0 | 6.4 | 0.00 | 0.05 | 0.03 | 86 | 1012.6 |
| 20260505171147 | 13 | 196 | 1.6 | 4.8 | 0.00 | 0.05 | 0.03 | 86 | 1012.5 |
| 20260505170647 | 13 | 205 | 0.0 | 4.8 | 0.00 | 0.05 | 0.03 | 86 | 1012.4 |
| 20260505170147 | 13 | 222 | 0.0 | 3.2 | 0.00 | 0.05 | 0.03 | 86 | 1012.5 |
| 20260505165147 | 13 | 261 | 1.6 | 6.4 | 0.00 | 0.05 | 0.03 | 86 | 1012.5 |
| 20260505164147 | 13 | 243 | 0.0 | 6.4 | 0.00 | 0.05 | 0.03 | 86 | 1012.5 |
| 20260505163648 | 13 | 211 | 3.2 | 6.4 | 0.00 | 0.05 | 0.03 | 86 | 1012.4 |
| 20260505163147 | 13 | 278 | 1.6 | 6.4 | 0.00 | 0.05 | 0.03 | 86 | 1012.4 |
| 20260505162646 | 13 | 166 | 0.0 | 6.4 | 0.00 | 0.05 | 0.03 | 86 | 1012.3 |
| 20260505162147 | 13 | 222 | 1.6 | 9.7 | 0.00 | 0.05 | 0.03 | 86 | 1012.3 |
| 20260505161646 | 13 | 249 | 1.6 | 9.7 | 0.00 | 0.05 | 0.03 | 86 | 1012.3 |
| 20260505161149 | 13 | 243 | 0.0 | 9.7 | 0.00 | 0.05 | 0.03 | 87 | 1012.2 |
| 20260505160647 | 13 | 205 | 1.6 | 4.8 | 0.00 | 0.05 | 0.03 | 87 | 1012.1 |
| 20260505160147 | 13 | 236 | 1.6 | 8.0 | 0.00 | 0.05 | 0.03 | 87 | 1012.2 |
| 20260505153147 | 13 | 155 | 0.0 | 1.6 | 0.00 | 0.05 | 0.03 | 88 | 1012.1 |
| 20260505152147 | 13 | 99 | 0.0 | 11.3 | 0.00 | 0.05 | 0.03 | 88 | 1012.1 |
| 20260505151647 | 12 | 172 | 0.0 | 11.3 | 0.00 | 0.05 | 0.03 | 88 | 1012.1 |
| 20260505150647 | 12 | 186 | 1.6 | 4.8 | 0.00 | 0.05 | 0.03 | 88 | 1012.1 |
| 20260505150147 | 12 | 110 | 0.0 | 8.0 | 0.00 | 0.05 | 0.03 | 88 | 1012.0 |
| 20260505140147 | 12 | 154 | 0.0 | 3.2 | 0.00 | 0.05 | 0.03 | 88 | 1011.7 |
| 20260505124647 | 12 | 133 | 1.6 | 4.8 | 0.00 | 0.05 | 0.03 | 88 | 1011.1 |
| 20260505124149 | 12 | 112 | 0.0 | 4.8 | 0.00 | 0.05 | 0.03 | 88 | 1011.1 |
| 20260505123648 | 12 | 149 | 1.6 | 4.8 | 0.00 | 0.05 | 0.03 | 88 | 1011.0 |
| 20260505123147 | 12 | 148 | 0.0 | 6.4 | 0.00 | 0.05 | 0.03 | 88 | 1011.0 |
| 20260505122648 | 12 | 140 | 0.0 | 6.4 | 0.00 | 0.05 | 0.03 | 88 | 1011.0 |
| 20260505122146 | 12 | 163 | 1.6 | 6.4 | 0.00 | 0.05 | 0.03 | 88 | 1011.0 |
| 20260505121149 | 12 | 105 | 1.6 | 4.8 | 0.00 | 0.05 | 0.03 | 88 | 1011.0 |
| 20260505120147 | 12 | 77 | 1.6 | 4.8 | 0.00 | 0.05 | 0.03 | 88 | 1011.0 |
| 20260505115648 | 12 | 95 | 0.0 | 6.4 | 0.00 | 0.05 | 0.03 | 88 | 1011.0 |
| 20260505115147 | 12 | 117 | 3.2 | 6.4 | 0.00 | 0.05 | 0.03 | 88 | 1011.0 |
| 20260505114149 | 12 | 103 | 1.6 | 4.8 | 0.00 | 0.05 | 0.03 | 88 | 1011.0 |
| 20260505113147 | 12 | 205 | 1.6 | 8.0 | 0.00 | 0.05 | 0.03 | 88 | 1011.0 |
| 20260505112648 | 12 | 170 | 3.2 | 8.0 | 0.00 | 0.05 | 0.03 | 88 | 1011.0 |
| 20260505112147 | 12 | 98 | 3.2 | 6.4 | 0.00 | 0.05 | 0.03 | 88 | 1011.0 |
| 20260505111647 | 12 | 107 | 1.6 | 3.2 | 0.00 | 0.05 | 0.03 | 88 | 1011.0 |
| 20260505111150 | 12 | 169 | 0.0 | 9.7 | 0.00 | 0.05 | 0.03 | 88 | 1011.0 |
| 20260505110647 | 12 | 138 | 1.6 | 9.7 | 0.00 | 0.05 | 0.03 | 88 | 1010.9 |
| 20260505110148 | 12 | 179 | 3.2 | 9.7 | 0.00 | 0.05 | 0.03 | 88 | 1010.9 |